Flag for Brazil Weather past 2 weeks in Cuiabá, Mato Grosso, Brazil

Now
81 °F

Scattered clouds.


Feels Like: 85 °F
Forecast: N/A
Wind: 5 mph from East

Location: Cuiaba Aeroporto


UV Index: N/A

Visibility: N/A


Pressure: 29.86 "Hg

Humidity: 74%

Dew point: 72 °F

Location of CuiabáLocation

Historic Weather in Cuiabá

°F

Cuiabá temperature yesterday

Maximum temperature yesterday: 90 °F (at 2:00 PM)
Minimum temperature yesterday: 70 °F (at 6:00 AM)
Average temperature yesterday: 78 °F

Past Weeks' High & Low Weather Summary

 TemperatureHumidityPressure
High93 °F (Apr 3, 2:00 PM)100% (Apr 3, 7:00 PM)30.04 "Hg (Apr 3, 7:00 PM)
Low39 °F (Apr 3, 7:00 PM)41% (Apr 6, 4:00 PM)29.77 "Hg (Apr 7, 5:00 PM)
Average79 °F78%29.90 "Hg
* Reported Apr 2 4:00 PM — Apr 17 4:00 PM, Cuiabá, Weather by CustomWeather, © 2014

Note: Actual official high and low records may vary slightly from our data, if they occured in-between our weather recording intervals... More about our weather records

Advertising

Historic Weather Conditions — Data for Previous 24 hours

 ConditionsComfort  
Time TempWeatherWind HumidityBarometerVisibility
4:00 PM
Apr 17
79 °FScattered clouds.7 mph79%29.83 "HgN/A
3:00 PM75 °FScattered clouds.5 mph89%29.86 "HgN/A
2:00 PM75 °FThundershowers. Scattered clouds.6 mph89%N/AN/A
1:00 PM77 °FThunderstorms. Scattered clouds.6 mph79%29.89 "HgN/A
12:00 PM77 °FThunderstorms. Scattered clouds.12 mph83%29.89 "Hg2 mi
11:00 AM86 °FScattered showers. Scattered clouds.2 mph62%29.95 "HgN/A
10:00 AM86 °FPassing clouds.5 mph66%29.95 "HgN/A
9:00 AM82 °FSunny.5 mph79%29.98 "Hg10 mi
8:00 AM79 °FSunny.5 mph89%29.95 "Hg10 mi
7:00 AM77 °FClear.5 mph83%29.89 "Hg5 mi
6:00 AM72 °FSunny.2 mph94%29.89 "Hg10 mi
5:00 AM73 °FClear.No wind94%29.86 "Hg10 mi
4:00 AM73 °FClear.3 mph89%29.86 "Hg10 mi
3:00 AM73 °FClear.No wind94%29.86 "Hg10 mi
2:00 AM73 °FClear.1 mph94%29.86 "Hg10 mi
1:00 AM75 °FClear.2 mph83%29.89 "Hg10 mi
12:00 AM75 °FClear.1 mph83%29.89 "Hg10 mi
11:00 PM
Apr 16
75 °FClear.2 mph83%29.89 "Hg10 mi
10:00 PM75 °FClear.3 mph89%29.89 "Hg10 mi
9:00 PM77 °FClear.2 mph89%29.86 "Hg10 mi
8:00 PM77 °FPassing clouds.1 mph89%29.86 "HgN/A
7:00 PM77 °FScattered showers. Passing clouds.5 mph83%29.83 "HgN/A
6:00 PM81 °FRain. Passing clouds.5 mph79%29.83 "HgN/A
5:00 PM86 °FScattered showers. Scattered clouds.6 mph62%29.83 "HgN/A
Weather by CustomWeather, © 2014

See weather overview